Wind_Speed
31 32 35 36 38 38 38 38 37 38 39 39 38 38 36 36 37 37 34 31 29 29 29 29 25 23 22 21 20 20 21 20 20 20 20 21 21 21 20 19 21 22 22 22
29 32 35 37 38 39 40 41 42 43 43 42 42 41 39 38 37 36 35 32 31 29 29 31 28 25 23 21 21 21 21 21 21 22 21 21 22 22 21 22 22 23 23 24
25 28 31 32 34 38 40 42 42 42 43 44 45 43 41 40 39 37 37 35 32 30 31 32 29 25 24 22 21 21 21 21 22 22 22 22 22 23 23 23 24 24 25 26
23 26 28 29 30 33 36 37 38 39 39 40 41 43 37 37 37 36 34 33 31 30 30 32 30 26 25 23 22 21 21 21 21 22 22 23 23 23 24 24 25 26 27 27
20 25 28 28 29 32 33 34 35 35 36 36 34 36 32 31 32 29 27 29 29 29 29 31 29 27 26 23 22 21 20 20 21 21 22 22 23 23 24 25 26 27 27 27
16 21 24 26 27 29 31 32 33 33 32 33 30 32 29 24 25 24 22 23 26 27 27 29 27 25 24 22 21 20 20 20 21 21 21 22 23 24 25 26 27 27 27 26
16 18 22 26 27 26 27 27 28 27 26 25 22 23 23 22 23 21 20 21 22 24 25 24 22 21 20 20 20 20 20 21 21 21 22 22 23 25 25 25 25 25 25 24
20 18 21 27 28 25 25 23 23 23 23 21 18 17 16 17 18 19 19 20 20 20 22 21 18 18 18 18 19 20 20 21 21 21 22 23 23 24 24 24 23 23 22 21
25 24 24 28 29 27 26 23 21 23 25 24 22 18 14 13 16 18 20 20 18 18 18 18 16 16 16 17 19 20 20 20 21 21 22 23 22 22 22 22 21 21 20 19
30 31 29 30 30 29 27 25 23 25 26 23 19 18 19 16 15 13 14 15 16 17 16 17 17 17 17 18 19 20 20 20 21 21 21 22 21 21 21 20 19 19 18 18
35 37 35 33 30 29 27 25 25 27 25 21 19 21 23 22 20 16 15 15 16 16 17 18 17 17 17 18 19 20 20 21 21 21 21 21 20 20 19 19 18 18 18 18
39 40 39 33 28 28 27 26 26 27 27 26 25 23 23 24 21 16 14 13 16 17 17 18 18 18 18 18 19 20 21 21 21 22 22 22 21 21 20 19 18 18 19 19
42 41 39 30 24 25 26 26 25 25 25 24 24 25 26 26 25 21 17 15 17 18 20 21 21 21 20 20 21 22 23 23 22 22 23 23 23 23 22 21 20 20 20 20
42 38 32 26 21 21 23 22 23 25 25 24 25 26 26 27 26 24 20 17 17 19 21 22 23 23 22 23 24 24 24 24 23 24 23 23 24 23 23 22 22 22 22 22
38 32 25 20 16 15 15 15 15 18 21 21 21 22 22 21 19 16 15 15 17 19 21 23 24 25 24 24 25 25 24 24 24 24 24 24 24 23 23 23 23 23 23 23
35 28 21 14 9 9 10 12 12 14 15 16 15 13 12 12 11 11 12 14 15 17 19 20 22 23 23 23 22 23 22 23 24 24 24 24 24 23 23 23 24 23 23 24
34 25 18 10 2 5 7 9 8 8 10 9 8 5 4 6 7 7 8 9 10 11 13 14 17 19 20 20 20 21 22 22 23 24 24 24 24 24 24 24 24 24 24 24
31 23 15 6 1 3 6 6 7 7 6 6 5 3 3 4 4 5 5 5 4 4 5 7 10 13 14 15 16 17 18 19 21 22 22 23 23 24 24 24 24 25 24 24
30 22 13 5 3 5 8 7 8 8 6 4 4 3 3 2 3 3 4 4 4 3 2 2 4 6 9 11 13 15 16 17 19 21 22 22 23 23 24 24 24 25 24 24
27 22 13 7 6 7 7 6 7 8 7 6 4 3 3 2 2 3 3 3 4 4 3 3 4 6 8 10 12 14 16 17 19 20 21 21 22 22 23 23 23 23 23 23
28 21 14 8 6 6 5 4 6 7 6 8 5 4 3 2 1 2 3 4 4 4 5 6 7 9 11 12 13 15 16 17 19 19 20 21 21 21 21 21 21 21 22 23
28 22 14 8 5 4 5 4 5 6 6 7 5 4 2 1 2 3 3 4 5 6 7 8 10 11 12 13 14 15 17 17 18 19 20 20 20 19 18 18 19 20 21 21
28 21 15 8 5 3 3 3 3 4 4 5 5 3 2 1 2 3 3 4 5 7 8 10 11 12 13 14 15 16 17 18 18 18 18 18 17 17 17 17 18 19 19 21
29 21 15 9 6 4 2 3 4 3 2 2 4 3 2 3 3 3 4 6 7 8 10 12 13 14 15 15 16 16 17 17 17 17 17 16 16 16 16 16 17 17 18 19
30 22 15 10 7 5 3 3 4 4 3 3 4 2 2 3 2 3 5 7 8 10 12 13 15 15 15 16 16 17 17 17 17 16 16 15 16 16 16 16 16 16 17 17
31 24 15 10 7 5 2 1 3 3 3 3 4 2 2 1 1 4 6 8 10 11 13 14 16 16 16 16 16 16 16 16 16 16 16 16 16 15 15 15 15 15 16 16
Wind_Direction
249 252 254 255 258 260 261 261 262 263 264 265 265 268 272 272 274 274 276 277 280 283 286 284 284 285 284 284 285 289 294 296 299 300 301 301 301 301 299 295 296 294 293 294
258 258 259 262 263 264 265 265 263 263 264 267 268 269 271 272 273 271 270 271 274 276 277 279 280 281 280 280 282 285 290 294 297 299 300 299 298 299 298 296 294 293 290 289
271 270 271 271 270 267 267 268 267 268 267 268 270 270 272 271 270 267 266 267 268 267 268 272 273 274 275 275 278 282 286 291 294 296 297 297 296 296 296 295 293 291 289 288
278 279 278 276 276 274 270 269 270 272 271 270 271 271 270 270 268 266 264 262 262 260 259 262 265 265 266 269 273 278 284 290 293 295 295 296 296 296 296 296 294 291 289 286
289 288 286 282 278 275 272 271 272 274 274 274 273 274 273 268 267 263 262 260 259 258 253 255 259 259 261 265 270 276 282 288 292 294 295 296 296 296 297 296 294 291 288 285
306 297 295 292 286 280 277 274 273 273 275 276 278 279 277 268 262 257 253 256 257 254 250 251 255 255 258 263 270 276 283 289 292 294 294 296 296 297 297 297 294 291 288 285
315 308 302 298 295 291 285 281 278 277 277 279 277 274 276 272 268 258 255 259 259 253 251 251 251 253 256 263 270 279 286 289 291 292 294 295 296 297 297 296 294 292 290 286
317 306 291 288 288 288 287 282 276 276 275 275 275 279 275 274 279 275 274 273 264 258 252 250 249 251 256 264 275 283 286 288 290 292 294 296 298 299 298 296 294 292 290 287
315 307 292 285 280 277 278 274 268 264 266 267 269 277 279 278 280 283 284 281 274 269 261 256 256 259 263 270 277 282 284 288 290 293 296 298 300 300 299 297 294 292 289 286
313 308 302 290 281 274 269 264 256 255 259 257 255 258 253 251 252 245 247 257 262 263 260 259 257 259 265 271 276 279 283 287 291 293 297 299 301 303 302 299 295 293 290 286
313 309 305 297 286 273 262 255 245 244 250 257 252 251 253 245 235 214 211 219 239 242 249 254 254 262 266 270 276 281 286 289 290 292 296 299 302 304 303 300 295 292 289 286
316 311 306 300 284 268 259 250 243 242 241 242 247 254 252 250 243 238 231 225 240 249 252 255 263 268 270 274 280 284 288 291 292 292 294 298 301 303 302 300 297 293 289 286
320 315 308 300 280 264 254 246 240 242 246 247 244 249 253 256 258 257 253 246 250 257 259 262 265 270 276 280 284 286 288 289 291 292 293 296 300 300 298 297 296 293 290 287
324 320 314 304 286 269 255 246 241 242 246 250 253 254 253 258 263 264 266 265 260 261 263 263 264 267 273 279 282 284 285 288 289 292 295 297 299 299 296 294 293 292 290 288
331 326 318 305 285 272 262 250 244 242 245 248 253 255 259 260 268 272 275 275 270 265 263 262 263 266 269 274 278 281 283 286 289 292 295 298 298 298 296 293 291 291 289 287
340 337 331 319 283 252 251 244 248 241 243 250 258 261 258 260 275 287 286 280 274 267 264 261 260 262 266 268 271 276 279 282 286 291 295 297 297 297 296 294 292 291 289 286
346 344 342 340 275 203 230 231 234 229 231 236 236 249 278 288 297 306 302 293 285 277 268 262 260 263 263 266 269 273 277 282 285 290 295 296 296 296 296 295 294 291 288 286
351 350 347 350 167 224 214 217 218 215 210 215 224 243 286 298 312 324 329 327 320 295 274 258 257 262 265 267 273 279 283 286 290 294 296 297 297 296 295 294 292 290 288 286
353 350 340 320 256 244 239 222 206 214 216 196 200 245 292 306 311 341 3 21 37 43 38 317 288 281 281 283 287 292 294 294 295 297 298 298 297 296 295 293 291 289 287 285
351 349 340 309 280 252 239 239 221 220 218 204 209 225 269 277 295 348 27 51 54 44 28 353 328 311 302 300 300 301 301 299 299 300 301 300 299 298 297 294 292 290 288 286
357 355 349 325 294 266 241 228 213 216 211 203 209 213 232 208 5 33 37 35 26 8 356 345 336 328 320 314 311 309 307 305 305 304 303 302 301 300 299 296 293 292 290 288
2 2 1 350 325 286 233 230 216 217 217 215 218 205 202 150 66 42 26 18 7 353 345 338 331 326 322 318 314 312 310 309 308 306 305 305 304 303 301 299 297 296 294 291
6 7 6 5 1 333 253 237 226 222 217 217 209 189 167 132 85 44 19 4 352 342 335 330 327 324 321 318 316 314 312 311 310 309 308 308 307 307 306 305 304 302 299 297
10 11 14 14 10 348 301 249 227 214 199 196 192 170 137 110 78 25 1 352 342 335 331 328 326 323 320 318 317 315 314 314 315 313 312 312 313 313 312 311 311 310 308 305
11 14 18 20 11 354 324 257 233 223 226 212 205 191 138 103 51 5 353 346 340 335 332 329 327 325 324 322 320 319 318 319 319 319 318 317 316 316 315 315 316 317 319 318
12 15 19 20 12 1 347 249 233 233 244 242 219 195 174 152 4 349 345 342 338 335 333 331 330 329 328 327 326 326 326 326 325 323 321 319 317 316 316 317 320 322 325 327
Height
5848 5850 5850 5850 5850 5852 5852 5853 5853 5853 5851 5851 5851 5852 5854 5854 5854 5854 5854 5855 5855 5854 5853 5852 5853 5853 5853 5852 5851 5850 5849 5849 5849 5848 5847 5847 5846 5845 5845 5844 5843 5842 5841 5841
5844 5844 5843 5844 5844 5845 5845 5844 5844 5844 5843 5843 5843 5844 5846 5846 5846 5846 5847 5848 5848 5848 5847 5845 5847 5847 5847 5848 5847 5846 5845 5844 5844 5843 5843 5842 5842 5841 5840 5839 5839 5838 5837 5836
5838 5838 5838 5838 5837 5837 5837 5836 5835 5835 5836 5835 5835 5836 5838 5838 5837 5838 5839 5840 5841 5842 5841 5839 5841 5842 5842 5842 5842 5841 5841 5840 5839 5839 5838 5838 5837 5835 5835 5834 5833 5832 5831 5830
5833 5832 5831 5830 5830 5829 5828 5827 5827 5826 5826 5826 5826 5824 5829 5828 5828 5829 5830 5831 5832 5834 5834 5832 5834 5836 5836 5836 5836 5836 5836 5836 5835 5834 5833 5832 5831 5830 5829 5827 5826 5825 5824 5823
5827 5826 5824 5823 5822 5821 5820 5819 5819 5818 5817 5818 5817 5816 5820 5819 5819 5820 5821 5822 5823 5825 5826 5825 5827 5829 5830 5830 5831 5831 5831 5831 5830 5829 5828 5827 5826 5824 5823 5821 5820 5818 5817 5816
5823 5821 5818 5816 5814 5813 5812 5811 5811 5810 5810 5811 5811 5810 5812 5811 5811 5812 5813 5815 5816 5817 5818 5818 5820 5822 5823 5824 5825 5826 5826 5826 5825 5824 5823 5822 5820 5818 5816 5815 5813 5811 5809 5808
5819 5817 5813 5809 5807 5807 5805 5805 5804 5804 5803 5804 5803 5804 5806 5805 5806 5807 5808 5808 5809 5810 5811 5812 5814 5816 5817 5819 5820 5820 5820 5820 5819 5818 5817 5816 5814 5812 5810 5808 5806 5804 5803 5802
5815 5813 5810 5805 5802 5801 5800 5800 5800 5799 5799 5798 5798 5798 5800 5799 5801 5802 5802 5803 5803 5804 5805 5807 5808 5810 5812 5813 5814 5815 5815 5815 5814 5812 5811 5809 5808 5806 5804 5802 5800 5799 5797 5796
5810 5808 5804 5799 5796 5795 5794 5794 5794 5793 5792 5793 5794 5795 5794 5792 5795 5796 5797 5798 5798 5799 5800 5801 5803 5805 5807 5808 5809 5810 5809 5809 5808 5806 5805 5803 5802 5800 5798 5796 5795 5793 5792 5791
5803 5799 5797 5792 5789 5787 5787 5786 5787 5786 5786 5787 5789 5790 5789 5789 5788 5789 5791 5791 5793 5794 5795 5796 5798 5800 5802 5803 5804 5804 5804 5803 5802 5801 5799 5798 5796 5794 5793 5791 5790 5789 5787 5786
5795 5789 5786 5782 5779 5776 5777 5778 5778 5778 5779 5781 5783 5786 5784 5782 5782 5780 5782 5785 5788 5789 5790 5790 5791 5795 5797 5798 5798 5798 5798 5798 5797 5795 5794 5793 5791 5789 5788 5786 5785 5784 5783 5782
5785 5778 5773 5771 5767 5765 5765 5766 5768 5771 5772 5774 5777 5780 5775 5777 5777 5775 5777 5779 5784 5786 5787 5787 5787 5790 5792 5793 5793 5793 5793 5792 5791 5790 5789 5788 5786 5785 5783 5782 5780 5779 5778 5778
5775 5767 5760 5758 5758 5756 5756 5757 5759 5762 5764 5767 5770 5774 5771 5772 5773 5774 5775 5777 5780 5782 5784 5785 5786 5787 5787 5788 5788 5787 5787 5786 5786 5785 5783 5782 5781 5780 5778 5777 5776 5775 5774 5773
5764 5756 5750 5747 5745 5746 5748 5750 5753 5757 5759 5763 5764 5765 5766 5768 5769 5771 5772 5773 5775 5777 5779 5780 5781 5782 5782 5782 5782 5782 5781 5780 5779 5778 5777 5777 5776 5774 5773 5771 5770 5769 5768 5767
5756 5749 5743 5739 5738 5740 5742 5745 5748 5752 5755 5758 5759 5761 5762 5764 5765 5767 5768 5769 5770 5771 5772 5774 5775 5775 5776 5777 5776 5776 5776 5775 5774 5773 5773 5772 5770 5768 5767 5765 5764 5763 5762 5761
5750 5743 5737 5735 5734 5737 5739 5742 5745 5748 5751 5754 5756 5757 5759 5760 5762 5763 5764 5765 5765 5766 5766 5767 5768 5769 5770 5770 5771 5771 5770 5770 5769 5768 5767 5766 5764 5762 5761 5759 5758 5757 5756 5755
5746 5740 5735 5733 5732 5734 5737 5740 5743 5745 5748 5751 5753 5755 5756 5759 5760 5761 5761 5761 5761 5761 5761 5762 5763 5764 5764 5764 5765 5765 5765 5765 5763 5762 5761 5760 5758 5756 5755 5753 5752 5750 5749 5748
5744 5738 5735 5733 5734 5735 5738 5738 5741 5744 5746 5749 5752 5754 5755 5757 5758 5759 5759 5758 5758 5758 5758 5758 5758 5760 5760 5760 5761 5761 5761 5760 5759 5757 5756 5754 5752 5750 5749 5747 5745 5744 5742 5741
5741 5737 5734 5733 5733 5734 5736 5737 5739 5743 5746 5748 5751 5753 5755 5756 5757 5758 5758 5757 5757 5757 5757 5757 5757 5758 5758 5758 5758 5758 5757 5756 5755 5753 5751 5749 5747 5745 5743 5741 5739 5737 5736 5735
5740 5736 5733 5732 5733 5734 5736 5737 5739 5744 5746 5748 5751 5753 5755 5756 5757 5758 5757 5757 5757 5757 5757 5757 5757 5757 5756 5756 5755 5754 5753 5752 5750 5748 5746 5744 5741 5739 5737 5735 5732 5730 5729 5728
5740 5735 5732 5732 5733 5734 5736 5738 5741 5745 5747 5748 5750 5753 5754 5756 5757 5758 5757 5757 5757 5757 5757 5756 5756 5755 5754 5753 5752 5750 5749 5747 5745 5743 5741 5739 5736 5734 5731 5729 5727 5725 5723 5721
5739 5735 5733 5733 5734 5737 5737 5739 5742 5745 5746 5749 5751 5753 5755 5756 5757 5757 5758 5758 5757 5757 5756 5756 5755 5753 5752 5750 5749 5747 5745 5743 5741 5739 5736 5734 5731 5729 5726 5724 5722 5719 5717 5715
5741 5738 5735 5735 5737 5737 5738 5741 5743 5745 5747 5750 5752 5754 5755 5756 5757 5758 5758 5758 5758 5757 5756 5755 5753 5752 5750 5748 5746 5744 5741 5739 5737 5734 5732 5730 5727 5725 5722 5720 5717 5714 5712 5709
5745 5741 5739 5738 5739 5740 5741 5743 5745 5747 5749 5751 5753 5755 5756 5757 5758 5758 5758 5758 5758 5757 5755 5754 5752 5750 5748 5745 5743 5740 5738 5735 5733 5730 5728 5726 5723 5721 5718 5716 5713 5710 5707 5704
5750 5745 5743 5742 5742 5743 5744 5745 5747 5749 5751 5753 5754 5756 5757 5757 5758 5759 5759 5758 5757 5756 5754 5752 5750 5748 5745 5743 5740 5737 5734 5732 5729 5727 5725 5722 5720 5717 5715 5712 5709 5706 5703 5699
5754 5749 5746 5745 5745 5745 5746 5747 5749 5751 5752 5754 5755 5756 5757 5758 5758 5759 5759 5758 5757 5755 5754 5751 5749 5746 5743 5740 5737 5734 5731 5729 5726 5724 5722 5719 5716 5714 5711 5708 5706 5702 5699 5696